"Pseudo-MPEC" for Sar2878

Created 2026 Mar 10 6:35:28 UT using Find_Orb

Click here for an explanation of pseudo-MPECs

 
 Astrometry: 
     Sar2878 0C2026 03 08.37836511 04 37.424+26 09 03.73   ~39Eo 19.58GVNEOCPF52
     Sar2878 0C2026 03 08.38791811 05 02.588+26 06 55.57   ~39Eo 19.31GVNEOCPF52
     Sar2878* C2026 03 08.96766911 33 09.88 +23 31 18.6    ~3905 19.3 GVNEOCPK88
     Sar2878  C2026 03 08.97722511 33 37.11 +23 28 29.9    ~3905 19.4 GVNEOCPK88
     Sar2878  C2026 03 08.97921211 33 42.72 +23 27 55.6    ~3905 19.5 GVNEOCPK88
     Sar2878  C2026 03 08.98120611 33 48.48 +23 27 19.7    ~3905 18.9 GVNEOCPK88
     Sar2878  C2026 03 08.98408611 33 56.68 +23 26 28.0    ~3905 19.4 GVNEOCPK88
     Sar2878 KB2026 03 09.01155 11 35 12.38 +23 18 28.5    ~390o 19.6 GXNEOCPM45
     Sar2878 KB2026 03 09.01505 11 35 22.42 +23 17 25.4    ~390o 19.6 GXNEOCPM45
     Sar2878 KB2026 03 09.01865 11 35 32.74 +23 16 19.5    ~390o 19.2 GXNEOCPM45
     Sar2878 KC2026 03 09.02059 11 35 39.44 +23 15 39.1    ~391o 19.4 GZNEOCPL04
     Sar2878 KC2026 03 09.02167411 35 44.32 +23 15 12.8    ~391o 19.6 GVNEOCPK88
     Sar2878 KC2026 03 09.02458 11 35 50.91 +23 14 26.3    ~391o 19.5 GZNEOCPL04
     Sar2878 KC2026 03 09.02514411 35 54.28 +23 14 10.0    ~391o 19.5 GVNEOCPK88
     Sar2878 KC2026 03 09.02858811 36 04.17 +23 13 07.3    ~391o 19.0 GVNEOCPK88
     Sar2878 KC2026 03 09.03657811 36 27.10 +23 10 41.5    ~392Z 18.8 GVNEOCPK88
     Sar2878 KC2026 03 09.03989911 36 36.71 +23 09 40.0    ~392Z 19.2 GVNEOCPK88
     Sar2878 KC2026 03 09.04320511 36 46.21 +23 08 39.2    ~392Z 19.2 GVNEOCPK88
     Sar2878 KC2026 03 09.08600511 38 50.31 +22 55 21.4    ~3935 19.2 GVNEOCPK88
     Sar2878 KC2026 03 09.08734411 38 54.26 +22 54 56.3    ~3935 19.3 GVNEOCPK88
     Sar2878 KC2026 03 09.08887511 38 58.73 +22 54 27.4    ~3935 19.2 GVNEOCPK88
     Sar2878 KC2026 03 09.11397411 40 12.23 +22 46 30.8    ~393K 19.1 GVNEOCPK88
     Sar2878 KC2026 03 09.11687811 40 20.78 +22 45 34.8    ~393K 19.3 GVNEOCPK88
     Sar2878 KC2026 03 09.11975111 40 29.23 +22 44 40.0    ~393K 19.1 GVNEOCPK88
     Sar2878 KB2026 03 09.13425 11 41 56.44 +22 41 35.4    ~393Z 19.3 GXNEOCPW13
     Sar2878 KB2026 03 09.13588 11 42 01.26 +22 41 06.0    ~393Z 18.8 GXNEOCPW13
     Sar2878 KB2026 03 09.13744 11 42 05.77 +22 40 37.7    ~393Z 19.7 GXNEOCPW13
     Sar2878 KC2026 03 09.15467011 42 56.34 +22 35 21.4    ~3945 19.7 GVNEOCPH21
     Sar2878 KC2026 03 09.15590511 42 59.91 +22 34 58.9    ~3945 19.3 GVNEOCPH21
     Sar2878 0C2026 03 09.21147111 45 33.384+22 17 48.36   ~396K 19.4 GWNEOCPW27
     Sar2878 0C2026 03 09.21798611 45 52.145+22 15 45.71   ~396K 17.6 GWNEOCPW27
     Sar2878  C2026 03 09.28916611 49 41.107+21 53 14.92   ~397Z 19.30GVNEOCPU68
     Sar2878  C2026 03 09.29250711 49 50.830+21 52 11.03   ~397Z 19.30GVNEOCPU68
     Sar2878  C2026 03 09.30901011 50 38.523+21 46 53.66   ~397o 18.99GVNEOCPU74
     Sar2878  C2026 03 09.30994511 50 41.268+21 46 36.51   ~397o 18.99GVNEOCPU74
     Sar2878 KB2026 03 09.37891411 54 02.011+21 23 14.78   ~39D5 19.7 GVNEOCPU52
     Sar2878 KB2026 03 09.39767811 54 56.506+21 16 55.74   ~39D5 18.6 GVNEOCPU52
     Sar2878 KB2026 03 09.54249612 02 48.834+20 27 35.65   ~39Do 19.1 GXNEOCPQ06
     Sar2878 KB2026 03 09.55711712 03 31.914+20 22 37.02   ~39Do 17.9 GXNEOCPQ06
     Sar2878 KB2026 03 09.58878312 05 04.846+20 11 47.08   ~39F5 19.9 GWNEOCP900
     Sar2878 KB2026 03 09.59769312 05 30.780+20 08 40.27   ~39F5 19.6 GWNEOCP900
     Sar2878 KB2026 03 09.60660312 05 56.746+20 05 32.93   ~39F5 18.9 GWNEOCP900
     Sar2878 KB2026 03 09.65697512 08 33.264+19 46 48.25   ~3A4o 18.4 GVNEOCPP13
     Sar2878 KB2026 03 09.66697612 09 02.544+19 43 15.06   ~3A4o 18.9 GVNEOCPP13
     Sar2878 KB2026 03 09.67689712 09 31.498+19 39 42.77   ~3A4o 18.8 GVNEOCPP13
     Sar2878 KB2026 03 09.81548612 16 54.398+18 47 03.37   ~39KK 19.2 GXNEOCPM35
     Sar2878 KB2026 03 09.82063712 17 09.912+18 45 10.08   ~39KK 19.3 GXNEOCPM35
     Sar2878 KB2026 03 09.82578712 17 25.349+18 43 18.80   ~39KK 19.2 GXNEOCPM35
     Sar2878 KB2026 03 09.87358412 19 49.47 +18 25 15.3    ~39M5 18.2 GVNEOCPG02
     Sar2878 KB2026 03 09.88142912 20 12.82 +18 22 20.9    ~39M5 18.3 GVNEOCPG02
     Sar2878 1C2026 03 09.88492 12 20 16.12 +18 22 00.7    ~39M5 19.4 GXNEOCPC40
     Sar2878 1C2026 03 09.88775 12 20 24.47 +18 20 57.0    ~39M5 18.9 GXNEOCPC40
     Sar2878 1C2026 03 09.89053 12 20 32.62 +18 19 54.6    ~39M5 19.0 GXNEOCPC40
     Sar2878 KB2026 03 09.89338012 20 48.33 +18 17 56.3    ~39M5 18.4 GVNEOCPG02
     Sar2878 KB2026 03 09.92976912 22 44.40 +18 04 36.7    ~39MZ 18.7 GVNEOCPI93
     Sar2878 KB2026 03 09.93190212 22 50.72 +18 03 48.8    ~39MZ 19.6 GVNEOCPI93
     Sar2878 KB2026 03 09.93399312 22 56.91 +18 03 02.2    ~39MZ 18.8 GVNEOCPI93
     Sar2878 KB2026 03 09.95258312 23 47.826+17 56 19.99   ~39No 19.57GXNEOCP126
     Sar2878 KB2026 03 09.96751212 24 31.538+17 50 40.31   ~39No 19.44GXNEOCP126
     Sar2878 KC2026 03 09.96777112 24 31.77 +17 50 34.9    ~39No 19.0 GVNEOCP104
     Sar2878 KC2026 03 09.97178112 24 43.49 +17 49 04.0    ~39No 18.7 GVNEOCP104
     Sar2878 KC2026 03 09.97579012 24 55.18 +17 47 32.5    ~39No 18.8 GVNEOCP104
     Sar2878 KC2026 03 10.22005312 37 32.41 +16 12 14.9    ~3A5Z 19.5 GVNEOCPH21
     Sar2878 KC2026 03 10.22146112 37 36.50 +16 11 41.6    ~3A5Z 19.5 GVNEOCPH21
     Sar2878 KC2026 03 10.22287012 37 40.59 +16 11 08.3    ~3A5Z 19.4 GVNEOCPH21

Station data:
(104) San Marcello Pistoiese  (N44.064178 E10.803750)  Italy.  Observers P.
   Bacci, M. Maestripieri. Measurers P. Bacci, L. Tesi, G. Fagioli. 0.60-m
   reflector + CCD.
(126) Monte Viseggi  (N44.132565 E9.790150)  Italy.
   Observers L. Sannino, A. Mancuso, S. Mercanti, D. Agnetti. Measurers L.
   Sannino, A. Mancuso. 0.41-m f/5.3 reflector + CCD.
(900) Moriyama  (N35.049753 E135.989940)  Japan.  Observer Y. Ikari. 0.26-m
   f/7.0 reflector + CCD.
(C40) Kuban State University Astrophysical Observatory  (N45.019544
   E39.030800)  Russia.  Observer A. Ivanov. 0.51-m f/8 reflector + CCD.
(F52) Pan-STARRS 2, Haleakala  (N20.707382 W156.255910)  US/Hawaii.
   Observers J. Herman, T. Lowe, P. Minguez, A. Schultz, I. Smith. Measurers
   K. Chambers, T. de Boer, J. Fairlamb, H. Gao, M. Huber, C.-C. Lin, E.
   Magnier, Y. Ramanjooloo, R. Wainscoat, R. Weryk. 1.8-m Ritchey-Chrétien +
   CCD.
(G02) KYSUCE Observatory, Kysucke Nove Mesto  (N49.307313 E18.765390)
   Slovakia.  Observer M. Urbanik. 0.40-m f/4.4 reflector + CCD.
(H21) Astronomical Research Observatory, Westfield  (N39.483054 W87.968270)
   US/Illinois.  Observer R. Holmes. Measurers S. Foglia, L. Buzzi, T.
   Linder, R. Holmes. 0.40-m f/5.32 astrograph + CCD.
(I93) St Pardon de Conques  (N44.558670 W0.202960)  France.  Observers F.
   Losse, W. D'Anna. Measurer F. Losse. 0.40-m f/3.7 reflector + CCD.
(K88) GINOP-KHK, Piszkéstető  (N47.917453 E19.893670)  Hungary.  Observer K.
   Sárneczky. 0.60-m Schmidt + CCD.
(L04) ROASTERR-1 Observatory, Cluj-Napoca  (N46.820952 E23.596400)  Romania.
   Observer L. Hudin. 0.1-m f/9 refractor + CCD.
(M35) PS Observatory, Parjol  (N46.575378 E26.616690).  Observer R. Anghel.
   Measurers R. Anghel, A. Anghel. 0.2-m f/12 Cassegrain + CCD.
(M45) Starhopper Observatory, Sfantu Gheorghe  (N45.865494 E25.768890)
   Romania.  Observer F. Ursache. 0.41-m f/7.5 reflector + CMO.
(P13) Baihuashan Observatory, Beijing  (N39.837554 E115.573330)  China.
   Observers Z. Wang, B. Liu. Measurer Z. Wang. 0.28-m f/2.2 reflector + CMO.
(Q06) Tarui Observatory, Tarui  (N35.394791 E136.495470)  Japan.  Observer H.
   Watanabe. 0.35-m f/1.9 Schmidt-Cassegrain + CMO.
(U52) Shasta Valley Observatory, Grenada  (N41.579164 W122.549000)
   US/California.  Observer J. E. Rogers. Measurers J. E. Rogers, D. Parrott.
   0.30-m Helin Telescope + CCD.
(U68) JPL SynTrack Robotic Telescope, Auberry  (N37.070387 W119.412990)
   US/California.  Observers N. Saini, C. Zhai, R. Trahan, M. Zhan, M. Shao.
   0.28-m f/2.2 Schmidt + CCD.
(U74) JPL SynTrack Robotic Telescope 2, Auberry  (N37.070341 W119.412800)
   US/California.  Observers N. Saini, C. Zhai, R. Trahan, M. Zhan, M. Shao.
   0.36-m f/2.2 Schmidt.
(W13) Star Quarry Observatory, Bedford  (N38.977039 W86.526390)  US/Indiana.
   Observer C. J. Horowitz. 0.20-m f/2 Schmidt-Cassegrain + CMO.
(W27) RCNS, New Milford  (N41.525582 W73.426170)  US/Connecticut.

Orbital elements:  Sar2878
   Perihelion 2026 Mar 13.903604 +/- 0.0011 TT = 21:41:11.4 (JD 2461113.403604)
Epoch 2026 Mar 10.0 TT = JDT 2461109.5   Earth MOID: 0.0124   Ma: 0.0036
M 358.688840583 +/- 0.0008          (J2000 ecliptic)             AutoNEOCP
n   0.335884293 +/- 0.000278        Peri.  164.993462 +/- 0.0035
a   2.049633695 +/- 0.00113         Node     8.878571 +/- 0.0028
e   0.50885574 +/- 0.000268         Incl.    0.860231 +/- 0.00037
P   2.93437                H 27.37  G  0.15   U  7.2
q 1.006665808 +/- 6.06e-6    Q 3.092601582 +/- 0.00225
From 65 observations 2026 Mar. 8-10 (44.3 hr); mean residual 0".44
Residuals in arcseconds: 
260308 F52  .16-  .10-    260309 K88  .16-  .00     260309 P13  .23-  .11-    
260308 F52  .23-  .16+    260309 K88  .31-  .24+    260309 M35  .68-  1.1+    
260308 K88  .58+  .08-    260309 W13  .19+  .13+    260309 M35  .09+  .27-    
260308 K88  .24+  .35-    260309 W13  1.1+  .13-    260309 M35  .13+  .60+    
260308 K88  .59-  .50+    260309 W13  .54+  .52-    260309 G02  .63+  .28-    
260308 K88  .35+  .08-    260309 H21  .39+  .01-    260309 G02  .55+  .87-    
260308 K88  .04+  .68-    260309 H21  .07+  .19-    260309 C40  .72-  .54+    
260309 M45  .27+  .33-    260309 W27  .33+  .70-    260309 C40  .04+  .29+    
260309 M45  .33+  .21+    260309 W27  .36+  .31+    260309 C40  .08+  .29+    
260309 M45  .20+  .09-    260309 U68  .56-  .19-    260309 G02  .69+  .23+    
260309 L04  .44+  .53+    260309 U68  .10+  .22-    260309 I93  .07-  .21+    
260309 K88  .42+  .37-    260309 U74  .53-  .32-    260309 I93  .12-  .02-    
